7 * 24
多渠道服务支持
QIANFAN-127(NORAD编号68654)是我国千帆星座(Spacesail星座)组网卫星之一,由上海垣信卫星科技有限公司自主研发,归入低轨卫星互联网系统。该卫星于2026年4月7日搭乘长征八号运载火箭,在海南商业航天发射场以“一箭十八星”方式发射入轨,属于千帆星座第七批组网卫星。 千帆星座采用Ku、Q/V频段,为全球提供宽带通信与互联网接入服务,QIANFAN-127入轨后,助力星座推进区域网络覆盖建设,服务“一带一路”沿线需求,推动我国商业低轨卫星互联网发展进程。
中国
(CN)
| 数据来源 | 国际轨道数据 |
| 星历时间: | 2026-07-27T21:51:17+0800 14小时前 查看轨道信息 |
| 半长轴: | 7136.369km |
| 偏心率: | 0.0073585 |
| 轨道倾角: | 88.991° |
| 近地点辐角 | 107.814° |
| 升交点赤经 | 315.546° |
| 平近点角 | 253.110° |
| 近地点: | 705.719km |
| 远地点: | 810.745km |
| 周期: | 99.994分钟 |
| 每日圈数: | 14.400807 |